SL-8 R/B, 3048

Orbit data source: Space-Track

SL-8 R/B, 3048 is space debris in LEO originally from a launch on Thu, 23 Nov 1967 UTC launched from the Plesetsk Missile And Space Complex (PKMTR). Debris objects in space refer to the collection of defunct objects orbiting the Earth. Examples of debris include non-operational satellites, rocket bodies, and fragments generated from explosions, collisions, or faulty payload assembly.

Loading next visibility...
Identifier
3048, 1967-116B
Orbit
LEO
Country
Flag of CISCIS
Related business
Manufacturer
Yuzhnoe
Mission
Spacecraft
Bus & Motor
S3, Unknown motor
Mass
1,434 kg wet, 1,434 kg dry
Launch date (UTC)
1967-11-23 (58 years ago)
Launch vehicle
Unknown
Launch site
Plesetsk Missile And Space Complex (PKMTR)
Object type
Payload
Rocket body
Debris
Shape & HBR
Unknown
Radar Cross Section
Large (>1 m²)

Expand to show TLE details & history
Last TLE update: 11 hours ago

TLE from 11 hours ago
0 SL-8 R/B
1  3048U 67116B   25354.92003454  .00000372  00000-0  78322-4 0  9990
2  3048  74.0047 191.9211 0007130 341.9124 122.0618 14.63173777 79965
Epoch: 2025-12-20T22:04Z
TLE epoch observation values (Epoch: 2025-12-20T22:04:50.984Z)
Latitude
68.9291°
Longitude
-96.76368°
Altitude
697.182 km
Speed
7.513 km/s
True Right ascension
21h 36m 45s
True Declination
68° 48' 45"
Sunlit
Object was in daylight at epoch
Visualization orbit readout
Latitude
Unknown
Longitude
Unknown
Altitude
Unknown
Speed
Unknown
Apparent Right ascension
Unknown
Apparent Declination
Unknown
Sunlit
N/A
Visualization observer readout
Local Sidereal Time
08:01:44
Azimuth
Unknown
Elevation
Unknown
Doppler factor
Unknown
Orbital elements
Apogee altitude
685.574 km
Perigee altitude
675.509 km
Semi-major axis
7,058.678 km
Eccentricity
0.00071
Inclination
74.0047°
RAAN
191.9211°
Arg. of periapsis
341.9124°
True anomaly
122.13101°
Mean anomaly
122.0618°
Eccentric anomaly
122.09641°
Mean motion
3.65981 °/min
Orbital period
98.37 mins
BSTAR
0.000078322
Loading maneuver chart data...
Computing Atmospheric mass density...
Loading historical data...
Loading historical data...
Loading historical data...
Loading historical data...
Loading historical data...
Loading historical data...
Loading historical data...

Documentation

Showing up to 5 results
|